Ashland, WI

12:13 AM CST on February 25, 2017 (GMT -0600)
Kennedy Memorial

Weather History for KASX - July, 2013

Change the Weather History Date:

Monday, July 1, 2013

  Actual Average Record
Temperature  
Mean Temperature 55 °F -  
Max Temperature 68 °F 76 °F 94 °F (1963)
Min Temperature 41 °F 51 °F 34 °F (1988)
Degree Days  
Heating Degree Days 10    
Growing Degree Days 5 (Base 50)    
Moisture  
Dew Point 50 °F    
Average Humidity 76    
Maximum Humidity 96    
Minimum Humidity 57    
Precipitation  
Precipitation 0.00 in - - ()
Sea Level Pressure  
Sea Level Pressure 30.22 in    
Wind  
Wind Speed 5 mph (NNE)    
Max Wind Speed 16 mph    
Max Gust Speed -    
Visibility 10 miles    
Events      
Averages and records for this station are not official NWS values.
T = Trace of Precipitation, MM = Missing Value Source: NWS Daily Summary

Daily Weather History Graph

Daily Weather History Graph

Search for Another Location

Airport or City:

Trip Planner

Search our weather history database for the weather conditions in past years. The results will help you decide how hot, cold, wet, or windy it might be!

Date:

Astronomy

Jul. 01, 2013 Rise Set
Actual Time 5:14 AM CDT 9:00 PM CDT
Civil Twilight 4:35 AM CDT 9:39 PM CDT
Nautical Twilight 3:43 AM CDT 10:31 PM CDT
Astronomical Twilight 2:28 AM CDT 11:45 PM CDT
Moon 12:59 AM CDT (7/1) 3:03 PM CDT (7/1)
Length of Visible Light 17h 03m
Length of Day
15h 45m
Waning Crescent, 35% of the Moon is Illuminated
Jul 1
Waning Crescent
Jul 8
New
Jul 15
First Quarter
Jul 22
Full
Jul 29
Last Quarter

Hourly Weather History & Observations

Time (CDT) Temp. Dew Point Humidity Pressure Visibility Wind Dir Wind Speed Gust Speed Precip Events Conditions
12:53 AM 55.9 °F 52.0 °F 87% 30.13 in 10.0 mi SSW 3.5 mph - N/A   Partly Cloudy
1:53 AM 53.1 °F 51.1 °F 93% 30.14 in 10.0 mi Calm Calm - N/A   Partly Cloudy
2:53 AM 54.0 °F 52.0 °F 93% 30.14 in 10.0 mi SSW 3.5 mph - N/A   Clear
3:53 AM 53.1 °F 51.1 °F 93% 30.15 in 10.0 mi West 3.5 mph - N/A   Scattered Clouds
4:53 AM 52.0 °F 50.0 °F 93% 30.16 in 10.0 mi Calm Calm - N/A   Clear
5:53 AM 51.1 °F 48.9 °F 92% 30.19 in 10.0 mi Calm Calm - N/A   Clear
6:53 AM 55.9 °F 53.1 °F 90% 30.21 in 9.0 mi Calm Calm - N/A   Clear
7:53 AM 62.1 °F 54.0 °F 75% 30.22 in 10.0 mi NNE 4.6 mph - N/A   Clear
8:53 AM 62.1 °F 52.0 °F 70% 30.24 in 10.0 mi NE 8.1 mph - N/A   Clear
9:53 AM 64.0 °F 51.1 °F 63% 30.24 in 10.0 mi NNE 6.9 mph - N/A   Clear
10:53 AM 64.9 °F 53.1 °F 65% 30.25 in 10.0 mi ENE 5.8 mph - N/A   Clear
11:53 AM 66.0 °F 53.1 °F 63% 30.26 in 10.0 mi NNE 11.5 mph - N/A   Clear
12:53 PM 64.0 °F 53.1 °F 67% 30.27 in 10.0 mi NNE 16.1 mph - N/A   Clear
1:53 PM 64.9 °F 52.0 °F 63% 30.27 in 10.0 mi NNE 13.8 mph - N/A   Clear
2:53 PM 66.9 °F 52.0 °F 59% 30.26 in 10.0 mi NE 13.8 mph - N/A   Clear
3:53 PM 66.9 °F 51.1 °F 57% 30.26 in 10.0 mi NE 16.1 mph - N/A   Clear
4:53 PM 66.9 °F 51.1 °F 57% 30.26 in 10.0 mi NNE 13.8 mph - N/A   Clear
5:53 PM 64.0 °F 48.9 °F 58% 30.26 in 10.0 mi NNE 9.2 mph - N/A   Clear
6:53 PM 61.0 °F 46.9 °F 60% 30.25 in 10.0 mi North 6.9 mph - N/A   Clear
7:53 PM 57.9 °F 45.0 °F 62% 30.25 in 10.0 mi NNE 6.9 mph - N/A   Clear
8:53 PM 50.0 °F 44.1 °F 80% 30.25 in 10.0 mi Calm Calm - N/A   Clear
9:53 PM 45.0 °F 43.0 °F 93% 30.25 in 10.0 mi Calm Calm - N/A   Clear
10:53 PM 44.1 °F 42.1 °F 93% 30.24 in 10.0 mi Calm Calm - N/A   Clear
11:53 PM 41.0 °F 39.9 °F 96% 30.24 in 10.0 mi Calm Calm - N/A   Clear